Skip Page Navigation
NASA JPL Caltech
NASA Logo - Jet Propulsion Laboratory + View the NASA Portal
+ Center for Near-Earth Object Studies
JPL Home Earth Solar System Stars & Galaxies Technology
JPL Solar System Dynamics
BODIES ORBITS EPHEMERIDES TOOLS PHYSICAL DATA DISCOVERY FAQ SITE MAP
IMPORTANT: The SSD Announcement email list is now available. Major changes are coming in the near future, including possible hostname and/or URL changes. To be notified of such changes, subscribe to this email list.

Please visit this page for more details.


JPL Small-Body Database Browser
Search: [ help ]  
48840 (1998 BR4)
Classification: Main-belt Asteroid          SPK-ID: 2048840
Ephemeris | Orbit Diagram | Orbital Elements | Mission Design | Physical Parameters | Discovery Circumstances | Close-Approach Data ]

[ show orbit diagram ]
Orbital Elements at Epoch 2458600.5 (2019-Apr-27.0) TDB
Reference: JPL 18 (heliocentric ecliptic J2000)
 Element Value Uncertainty (1-sigma)   Units 
e .2255753386792374 4.8748e-08  
a 3.19362400380344 2.0824e-08 au
q 2.473221187531337 1.6521e-07 au
i 3.757160945754678 4.0881e-06 deg
node 265.1671490208562 9.9892e-05 deg
peri 143.8339549475277 0.00010072 deg
M 303.8452998264565 1.2725e-05 deg
tp 2458925.667936224608
(2020-Mar-17.16793622)
7.5129e-05 TDB
period 2084.606572185216
5.71
2.0389e-05
5.582e-08
d
yr
n .172694456979777 1.689e-09 deg/d
Q 3.914026820075544 2.5521e-08 au
  Orbit Determination Parameters
   # obs. used (total)      950  
   data-arc span      8424 days (23.06 yr)  
   first obs. used      1996-10-04  
   last obs. used      2019-10-28  
   planetary ephem.      DE431  
   SB-pert. ephem.      SB431-N16  
   condition code      0  
   norm. resid. RMS      .51192  
   source      ORB  
   producer      Otto Matic  
   solution date      2019-Nov-07 06:38:53  

Additional Information
 Earth MOID = 1.48439 au 
 Jupiter MOID = 1.49067 au 
 T_jup = 3.152 
[ show covariance matrix ]

Ephemeris | Orbit Diagram | Orbital Elements | Mission Design | Physical Parameters | Discovery Circumstances | Close-Approach Data ]

Physical Parameter Table
Parameter Symbol Value Units Sigma Reference Notes
absolute magnitude H 14.0   n/a MPO333243  
diameter diameter 10.540 km 0.282 urn:nasa:pds:neowise_diameters_albedos::2.0[mainbelt] (http://adsabs.harvard.edu/abs/2011ApJ...741...68M)  
geometric albedo albedo 0.053   0.008 urn:nasa:pds:neowise_diameters_albedos::2.0[mainbelt] (http://adsabs.harvard.edu/abs/2011ApJ...741...68M)  

48840 (1998 BR4)          Discovered 1998-Jan-17 by ODAS at Caussols
Reference: 20021120/Numbers.arcLast Updated: 2004-04-19

[ show close-approach data ]
Alternate Designations
 1998 BR4 = 1996 TN48 
Ephemeris | Orbit Diagram | Orbital Elements | Mission Design | Physical Parameters | Discovery Circumstances | Close-Approach Data ]
ABOUT SSD CREDITS/AWARDS PRIVACY/COPYRIGHT GLOSSARY LINKS
FirstGov
(server date/time)  
NASA Home Page
Site Manager:   Ryan S. Park
Webmaster  Alan B. Chamberlin